Showing default

BSAT-4A, 42951

Orbit data source: Space-Track

BSAT-4A, 42951 is a payload satellite owned by BSAT (JP) in GEO that was launched on Fri, 29 Sep 2017 UTC via an ARIANE 5ECA launch vehicle from the French Guiana (FRGUI). Payload-class satellites include a variety of spacecraft equipped with specific instruments for various scientific and technological missions. These include communications satellites like Starlink; space stations such as the ISS; scientific satellites like the Hubble; Earth observation satellites from companies like Planet Labs, Umbra, and HawkEye 360; GPS; miniature CubeSats for education and research; and military/defense satellites.

Not visible in the next 10 days
Identifier
42951, 2017-059B
Orbit
GEO
Country
Flag of JPJP / JPN
Related business
Manufacturer
SS/Loral (MDA)
Mission
Operational Commercial Communications
Bus & Motor
LS-1300, R-4D
Mass
3,520 kg wet, ~1,800 kg dry
Launch date (UTC)
2017-09-29 (8 years ago)
Launch vehicle
ARIANE 5ECA
Launch site
French Guiana (FRGUI)
Object type
Payload
Rocket body
Debris
Shape & HBR
Box + 2 Pan, 12.3 m
Radar Cross Section
33.343 m², Large (>1 m²)

Expand to show TLE details & history
Last TLE update: 15 hours ago

TLE from 15 hours ago
0 BSAT-4A
1 42951U 17059B   25302.52532531 -.00000340  00000-0  00000+0 0  9998
2 42951   0.0695  64.3687 0000400 313.7028 319.0295  1.00272028 29489
Epoch: 2025-10-29T12:36Z
TLE epoch observation values (Epoch: 2025-10-29T12:36:28.106Z)
Latitude
-0.05177°
Longitude
109.84823°
Altitude
35,784.75 km
Speed
3.075 km/s
True Right ascension
22h 28m 15s
True Declination
0° 03' 06"
Sunlit
Object was in daylight at epoch
Visualization orbit readout
Latitude
Unknown
Longitude
Unknown
Altitude
Unknown
Speed
Unknown
Apparent Right ascension
Unknown
Apparent Declination
Unknown
Sunlit
N/A
Visualization observer readout
Local Sidereal Time
23:22:57
Azimuth
Unknown
Elevation
Unknown
Doppler factor
Unknown
Orbital elements
Apogee altitude
35,789.284 km
Perigee altitude
35,785.911 km
Semi-major axis
42,165.734 km
Eccentricity
0.00004
Inclination
0.0695°
RAAN
64.3687°
Arg. of periapsis
313.7028°
True anomaly
319.02649°
Mean anomaly
319.0295°
Eccentric anomaly
319.028°
Mean motion
0.25067 °/min
Orbital period
1,436.15 mins
BSTAR
0
Loading maneuver chart data...
Computing Atmospheric mass density...
Loading historical data...
Loading historical data...
Loading historical data...
Loading historical data...
Loading historical data...
Loading historical data...
Loading historical data...
Other satellites on launch #59 in the year 2017 (2017-09-29 UTC)

Documentation

Showing up to 5 results
|